Weather Roundup
Issued by NWS Chicago, IL

Home | Current Version | Previous Version | Graphics & Text | Print | Product List | Glossary On
Versions: 1 2 3 4 5 6 7 8 9 10 11 12 13 14 15 16 17 18 19 20 21 22 23 24 25 26 27 28 29 30 31 32 33 34 35 36 37 38 39 40 41 42 43 44 45 46 47 48 49 50
000
NZUS59 KLOT 280409
HRRLOT

CHICAGO AREA WEATHER ROUNDUP
NATIONAL WEATHER SERVICE CHICAGO/ROMEOVILLE IL
1100 PM CDT FRI MAY 27 2016

NOTE: "FAIR" INDICATES FEW OR NO CLOUDS BELOW 12,000 FEET WITH NO
SIGNIFICANT WEATHER AND/OR OBSTRUCTIONS TO VISIBILITY.

* THESE STATIONS ARE NOT UNDER NWS QUALITY CONTROL. THEY ALSO MAY NOT
  REPORT WEATHER SUCH AS PRECIPITATION OR FOG.

ILZ005-006-012>014-019>023-280500-
NORTHEAST ILLINOIS

CITY           SKY/WX    TMP DP  RH WIND       PRES   REMARKS
OHARE          LGT RAIN  69  65  86 S15G22    29.88R
MIDWAY         LGT RAIN  71  67  87 S14G23    29.88S FOG
AURORA         MOCLDY    70  66  87 S14G23    29.86S
LANSING*       PTCLDY    70  65  84 S13G21    29.91R
JOLIET*        CLOUDY    70  67  90 S8        29.88S
WAUKEGAN       CLOUDY    70  66  87 S10       29.86S
DUPAGE AIRPORT CLOUDY    69  64  84 S13       29.87R
WHEELING       CLOUDY    70  65  84 S10       29.88R
KANKAKEE*      CLOUDY    69  65  88 S12       29.91S
MORRIS*        CLOUDY    69  66  89 S10       29.85F
LEWIS AIRPORT* LGT RAIN  68  64  86 S17       29.88S
$$

WIZ051-052-058>065-066-070>072-280500-
SOUTHEAST WISCONSIN

CITY           SKY/WX    TMP DP  RH WIND       PRES   REMARKS
MILWAUKEE      CLOUDY    69  64  84 S13       29.84F
KENOSHA*       CLOUDY    71  65  81 S14       29.86R
RACINE*        CLOUDY    68  62  81 S12       29.87S
BURLINGTON     CLOUDY    69  66  90 S14       29.84S FOG
WAUKESHA       PTCLDY    68  64  88 SE8       29.85S
WEST BEND      CLOUDY    66  64  94 CALM      29.84S
$$

INZ001>003-010>013-019-020-280500-
NORTHWEST INDIANA

CITY           SKY/WX    TMP DP  RH WIND       PRES   REMARKS
GARY*          CLOUDY    72  72 100 S9G16     29.91R
MICHIGAN CITY* NOT AVBL
RENSSELAER*    NOT AVBL
VALPARAISO     CLOUDY    71  64  78 S20G30    29.94R
$$

LMZ740>746-280500-
SOUTHERN LAKE MICHIGAN

STATION/POSITION TIME  SKY/WX   TEMP WIND        PRES    VSBY
                                AIR  DIR/SP/G
                 (UTC)          (F)  (DEG/KT/KT) (MB)    (MI)
HARRISON CRIB    0300            71  190/ 16/ 17   N/A
BURNHAM HARBOR   0400            69  210/  7/ 10   N/A
CALUMET HARBOR   0300                180/  7/ 11 1011.6R
BURNS HARBOR     0300            71  180/ 14/ 22 1012.9R
MICHIGAN CITY    0300            71  170/ 14/ 16   N/A
$$

ABBREVIATIONS USED IN REMARKS
   TC - TEMPERATURE IN CELSIUS
  WCI - WIND CHILL INDEX
   HX - HEAT INDEX
  VSB - VISIBILITY
$$




USA.gov is the U.S. government's official web portal to all federal, state and local government web resources and services.